| time (UTC) | temp C | wind direction | speed KPH | gust KPH | rain 1hr cm | rain 24hr cm | rain mn cm | humidity % | barometer mb |
| 20260504130517 | 14 | 293 | 4.8 | 9.7 | 0.00 | 0.00 | 0.00 | 42 | 1015.5 |
| 20260504110516 | 7 | 0.0 | 1.6 | 0.00 | 0.00 | 0.00 | 63 | 1015.5 | |
| 20260504100536 | 5 | 0.0 | 0.0 | 0.00 | 0.00 | 0.00 | 66 | 1015.0 | |
| 20260504081536 | 5 | 0.0 | 0.0 | 0.00 | 0.00 | 0.00 | 66 | 1015.4 | |
| 20260504080516 | 6 | 0.0 | 0.0 | 0.00 | 0.00 | 0.00 | 65 | 1015.2 | |
| 20260504050516 | 6 | 0.0 | 1.6 | 0.00 | 0.00 | 0.00 | 63 | 1014.7 | |
| 20260504045516 | 6 | 0.0 | 1.6 | 0.00 | 0.00 | 0.00 | 63 | 1014.7 | |
| 20260504044515 | 6 | 0.0 | 1.6 | 0.00 | 0.00 | 0.00 | 63 | 1014.5 | |
| 20260504043516 | 6 | 0.0 | 0.0 | 0.00 | 0.00 | 0.00 | 63 | 1014.5 | |
| 20260504042515 | 6 | 0.0 | 1.6 | 0.00 | 0.00 | 0.00 | 63 | 1014.3 | |
| 20260504041516 | 6 | 0.0 | 1.6 | 0.00 | 0.00 | 0.00 | 64 | 1014.3 | |
| 20260504040515 | 5 | 0.0 | 1.6 | 0.00 | 0.00 | 0.00 | 65 | 1014.2 | |
| 20260504035516 | 5 | 0.0 | 1.6 | 0.00 | 0.00 | 0.00 | 65 | 1013.9 | |
| 20260504034516 | 5 | 0.0 | 0.0 | 0.00 | 0.00 | 0.00 | 65 | 1013.9 | |
| 20260504033517 | 5 | 0.0 | 0.0 | 0.00 | 0.00 | 0.00 | 66 | 1013.9 | |
| 20260504032517 | 5 | 0.0 | 1.6 | 0.00 | 0.00 | 0.00 | 66 | 1014.0 | |
| 20260504031516 | 5 | 0.0 | 0.0 | 0.00 | 0.00 | 0.00 | 67 | 1014.1 | |
| 20260504030516 | 5 | 0.0 | 0.0 | 0.00 | 0.00 | 0.00 | 67 | 1014.1 | |
| 20260504025516 | 5 | 0.0 | 0.0 | 0.00 | 0.00 | 0.00 | 65 | 1014.0 | |
| 20260504024516 | 5 | 0.0 | 0.0 | 0.00 | 0.00 | 0.00 | 64 | 1014.0 | |
| 20260504023516 | 5 | 0.0 | 1.6 | 0.00 | 0.00 | 0.00 | 67 | 1014.2 | |
| 20260504022516 | 5 | 0.0 | 0.0 | 0.00 | 0.00 | 0.00 | 66 | 1014.2 | |
| 20260504021516 | 6 | 0.0 | 0.0 | 0.00 | 0.00 | 0.00 | 65 | 1014.1 | |
| 20260504020516 | 6 | 0.0 | 0.0 | 0.00 | 0.00 | 0.00 | 64 | 1014.1 | |
| 20260504015516 | 6 | 0.0 | 0.0 | 0.00 | 0.00 | 0.00 | 62 | 1014.1 | |
| 20260504014516 | 6 | 0.0 | 0.0 | 0.00 | 0.00 | 0.00 | 61 | 1013.9 | |
| 20260504013516 | 7 | 0.0 | 0.0 | 0.00 | 0.00 | 0.00 | 60 | 1014.2 | |
| 20260504012516 | 7 | 0.0 | 0.0 | 0.00 | 0.00 | 0.00 | 59 | 1014.1 | |
| 20260504011517 | 7 | 0.0 | 0.0 | 0.00 | 0.00 | 0.00 | 60 | 1014.1 | |
| 20260504010536 | 7 | 0.0 | 1.6 | 0.00 | 0.00 | 0.00 | 61 | 1013.8 | |
| 20260504005516 | 7 | 0.0 | 0.0 | 0.00 | 0.00 | 0.00 | 61 | 1013.6 | |
| 20260504004516 | 7 | 0.0 | 0.0 | 0.00 | 0.00 | 0.00 | 58 | 1013.7 | |
| 20260504003516 | 8 | 0.0 | 0.0 | 0.00 | 0.00 | 0.00 | 57 | 1013.5 | |
| 20260504002516 | 8 | 0.0 | 0.0 | 0.00 | 0.00 | 0.00 | 55 | 1013.5 | |
| 20260504001516 | 9 | 0.0 | 0.0 | 0.00 | 0.00 | 0.00 | 52 | 1013.4 | |
| 20260504000516 | 10 | 0.0 | 0.0 | 0.00 | 0.00 | 0.00 | 49 | 1013.4 | |
| 20260503235516 | 10 | 0.0 | 0.0 | 0.00 | 0.00 | 0.00 | 49 | 1013.3 | |
| 20260503234516 | 10 | 0.0 | 1.6 | 0.00 | 0.00 | 0.00 | 47 | 1013.2 | |
| 20260503233516 | 10 | 0.0 | 0.0 | 0.00 | 0.00 | 0.00 | 48 | 1013.1 | |
| 20260503232516 | 11 | 0.0 | 1.6 | 0.00 | 0.00 | 0.00 | 45 | 1013.1 | |
| 20260503231536 | 11 | 0.0 | 3.2 | 0.00 | 0.00 | 0.00 | 45 | 1013.1 | |
| 20260503230516 | 11 | 293 | 1.6 | 4.8 | 0.00 | 0.00 | 0.00 | 44 | 1013.0 |
| 20260503225536 | 11 | 293 | 3.2 | 11.3 | 0.00 | 0.00 | 0.00 | 42 | 1012.8 |
| 20260503224516 | 11 | 293 | 1.6 | 4.8 | 0.00 | 0.00 | 0.00 | 42 | 1012.7 |
| 20260503223516 | 11 | 293 | 1.6 | 8.0 | 0.00 | 0.00 | 0.00 | 41 | 1012.8 |
| 20260503222536 | 12 | 293 | 3.2 | 12.9 | 0.00 | 0.00 | 0.00 | 39 | 1012.9 |
| 20260503221516 | 12 | 293 | 3.2 | 9.7 | 0.00 | 0.00 | 0.00 | 38 | 1012.8 |
| 20260503220516 | 12 | 293 | 1.6 | 6.4 | 0.00 | 0.00 | 0.00 | 38 | 1012.7 |
| 20260503215516 | 12 | 293 | 1.6 | 6.4 | 0.00 | 0.00 | 0.00 | 38 | 1012.7 |
| 20260503214516 | 12 | 315 | 1.6 | 8.0 | 0.00 | 0.00 | 0.00 | 37 | 1012.6 |
| 20260503213516 | 13 | 293 | 1.6 | 9.7 | 0.00 | 0.00 | 0.00 | 36 | 1012.8 |
| 20260503212516 | 13 | 293 | 3.2 | 9.7 | 0.00 | 0.00 | 0.00 | 35 | 1012.6 |
| 20260503211516 | 13 | 293 | 1.6 | 6.4 | 0.00 | 0.00 | 0.00 | 34 | 1012.4 |
| 20260503210516 | 12 | 293 | 3.2 | 9.7 | 0.00 | 0.00 | 0.00 | 35 | 1012.5 |
| 20260503205516 | 12 | 293 | 1.6 | 6.4 | 0.00 | 0.00 | 0.00 | 36 | 1012.6 |
| 20260503204516 | 12 | 293 | 3.2 | 8.0 | 0.00 | 0.00 | 0.00 | 35 | 1012.6 |
| 20260503203516 | 12 | 293 | 4.8 | 12.9 | 0.00 | 0.00 | 0.00 | 35 | 1012.6 |
| 20260503202515 | 12 | 315 | 3.2 | 9.7 | 0.00 | 0.00 | 0.00 | 36 | 1012.8 |
| 20260503201516 | 12 | 293 | 1.6 | 9.7 | 0.00 | 0.00 | 0.00 | 35 | 1012.7 |
| 20260503200516 | 12 | 293 | 3.2 | 12.9 | 0.00 | 0.00 | 0.00 | 34 | 1012.8 |
| 20260503195516 | 12 | 293 | 3.2 | 9.7 | 0.00 | 0.00 | 0.00 | 36 | 1013.0 |
| 20260503194516 | 12 | 270 | 6.4 | 22.5 | 0.00 | 0.00 | 0.00 | 35 | 1012.9 |
| 20260503193536 | 12 | 293 | 4.8 | 14.5 | 0.00 | 0.00 | 0.00 | 35 | 1013.2 |
| 20260503192536 | 12 | 293 | 4.8 | 11.3 | 0.00 | 0.00 | 0.00 | 35 | 1013.2 |
| 20260503191536 | 12 | 293 | 3.2 | 11.3 | 0.00 | 0.00 | 0.00 | 35 | 1013.2 |
| 20260503190516 | 12 | 293 | 3.2 | 9.7 | 0.00 | 0.00 | 0.00 | 36 | 1013.3 |
| 20260503185536 | 12 | 293 | 3.2 | 11.3 | 0.00 | 0.00 | 0.00 | 36 | 1013.3 |
| 20260503184536 | 12 | 315 | 3.2 | 9.7 | 0.00 | 0.00 | 0.00 | 36 | 1013.5 |
| 20260503183515 | 12 | 0 | 4.8 | 12.9 | 0.00 | 0.00 | 0.00 | 34 | 1013.6 |
| 20260503182516 | 12 | 293 | 4.8 | 16.1 | 0.00 | 0.00 | 0.00 | 37 | 1013.6 |
| 20260503181515 | 11 | 293 | 3.2 | 11.3 | 0.00 | 0.00 | 0.00 | 38 | 1013.6 |
| 20260503180515 | 11 | 293 | 3.2 | 11.3 | 0.00 | 0.00 | 0.00 | 37 | 1013.7 |
| 20260503175535 | 11 | 293 | 1.6 | 12.9 | 0.00 | 0.00 | 0.00 | 41 | 1013.7 |
| 20260503174516 | 11 | 293 | 4.8 | 12.9 | 0.00 | 0.00 | 0.00 | 39 | 1013.9 |
| 20260503173515 | 11 | 293 | 4.8 | 11.3 | 0.00 | 0.00 | 0.00 | 38 | 1013.8 |
| 20260503172515 | 11 | 0 | 4.8 | 17.7 | 0.00 | 0.00 | 0.00 | 40 | 1013.9 |
| 20260503171515 | 10 | 293 | 4.8 | 12.9 | 0.00 | 0.00 | 0.00 | 40 | 1014.2 |
| 20260503170515 | 8 | 293 | 3.2 | 9.7 | 0.00 | 0.00 | 0.00 | 43 | 1013.8 |
| 20260503150517 | 7 | 293 | 3.2 | 8.0 | 0.00 | 0.00 | 0.00 | 51 | 1014.4 |